Regional Weather Roundup
Issued by NWS New Orleans/Baton Rouge, LA

Home | Current Version | Previous Version | Text Only | Print | Product List | Glossary Off
Versions: 1 2 3 4 5 6 7 8 9 10 11 12 13 14 15 16 17 18 19 20 21 22 23 24 25 26 27 28 29 30 31 32 33 34 35 36 37 38 39 40 41 42 43 44 45 46 47 48 49 50

291
ASUS44 KLIX 030910
RWRLIX
NEW ORLEANS REGIONAL WEATHER ROUNDUP
NATIONAL WEATHER SERVICE NEW ORLEANS LA
300 AM CST TUE MAR 03 2015

NOTE: "FAIR" INDICATES FEW OR NO CLOUDS BELOW 12,000 FEET WITH NO
      SIGNIFICANT WEATHER AND/OR OBSTRUCTIONS TO VISIBILITY.
      SKY/WX - SKY CONDITION AND SIGNIFICANT WEATHER.
      TMP - AIR TEMPERATURE.     DP    - DEWPOINT TEMPERATURE.
      RH  - RELATIVE HUMIDITY.   PRES  - PRESSURE.
      HI  - HEAT INDEX.          WCI   - WIND CHILL INDEX.

*  THESE STATIONS ARE NOT NWS OR FAA STATIONS AND ARE NOT UNDER
   NWS QUALITY CONTROL.

LAZ038-040-048-061>063-065>067-069-031000-
SOUTHEAST LOUISIANA

CITY           SKY/WX    TMP DP  RH WIND       PRES   REMARKS
N.O. AUDUBON     N/A     66  66 100 MISG        N/A
N.O. INTL ARPT FOG       66  64  93 S6        30.12F VSB 1/8
N.O. LAKEFRONT FOG       65  62  90 S6        30.13F VSB 1/4
SLIDELL        FOG       65  65 100 SE7       30.12F VSB 1/2
BATON ROUGE    FOG       56  55  97 W5        30.12F VSB 1/4
BOOTHVILLE     FOG       64  63  96 SE6       30.14F VSB 1/4
BELLE CHASSE   FOG       67  64  90 S6        30.12F VSB 1/4
BOGALUSA*      FOG       64  62  91 CALM      30.14F VSB 1/4
GALLIANO*      FOG       57  56  98 MISG      30.13F VSB<1/4
NEW ROADS*     FOG       50  49  98 CALM      30.13F VSB 1/4
GONZALES*      FOG       64  64 100 CALM      30.11F VSB<1/4
HAMMOND*       NOT AVBL
HOUMA*         HVY RAIN  64  64 100 CALM      30.12F VSB 1/4
PORT FOURCHON* FOG       66  66 100 E8        30.15F VSB 1

$$

MSZ070-080>082-031000-
SOUTHERN MISSISSIPPI

CITY           SKY/WX    TMP DP  RH WIND       PRES   REMARKS
MCCOMB         FOG       61  60  97 CALM      30.12F VSB 1/4
GULFPORT       FOG       62  61  96 SE5       30.13F VSB 1/4
BILOXI         FOG       64  64 100 S7        30.13F VSB 3/4
PASCAGOULA     FOG       63  63 100 SE3       30.15F VSB 1/2

$$

COASTAL OBSERVATIONS
LAKE AND NEARSHORE STATIONS

STATION/POSITION TIME  TEMP    WIND        PRES    WAVE
                       AIR SEA DIR/SP/G            HT/PER
                 (UTC) (F)     (DEG/KT/KT) (MB)    (FT/S)
PASCAGOULA       0900   62     130/  3/  6 1020.5
WAVELAND YACHT   0900   61     150/  7/  7 1020.2
GRAND ISLE       0900   64     120/  3/  5 1020.7
SOUTHWEST PASS   0900   59     110/ 11/ 12 1020.6
NEW CANAL        0900   64     150/  3/  4 1020.4
SHELL BEACH      0900   64     130/  8/  9 1020.2

OFFSHORE STATIONS

STATION/POSITION TIME  TEMP    WIND        PRES    WAVE
                       AIR SEA DIR/SP/G            HT/PER
                 (UTC) (F)     (DEG/KT/KT) (MB)    (FT/S)
64 S DAUPHIN ISL 0829   70 71  160/ 10/ 12 1021.5    2/ 7

$$




USA.gov is the U.S. government's official web portal to all federal, state and local government web resources and services.